Weather History for Gwinner, ND

Change the Weather History Date:

Friday, October 28, 2011

  Actual Average (KP67) Record (KP67)
Temperature  
Mean Temperature 42 °F -  
Max Temperature 51 °F 44 °F 57 °F (1996)
Min Temperature 32 °F 25 °F 28 °F (1997)
Degree Days  
Heating Degree Days 24    
Moisture  
Dew Point 31 °F    
Average Humidity 71    
Maximum Humidity 100    
Minimum Humidity 38    
Precipitation  
Precipitation 0.00 in - - ()
Sea Level Pressure  
Sea Level Pressure 30.06 in    
Wind  
Wind Speed 12 mph (WNW)    
Max Wind Speed 20 mph    
Max Gust Speed 28 mph    
Visibility 10 miles    
Events      
Averages and records for this station are not official NWS values.
T = Trace of Precipitation, MM = Missing Value Source: NWS Daily Summary

Daily Weather History Graph

Daily Weather History Graph

Search for Another Location

Airport:

Trip Planner

Search our weather history database for the weather conditions in past years. The results will help you decide how hot, cold, wet, or windy it might be!

Date:

Astronomy

Oct. 28, 2011 Rise Set
Actual Time 8:05 AM CDT 6:22 PM CDT
Civil Twilight 7:34 AM CDT 6:53 PM CDT
Nautical Twilight 6:59 AM CDT 7:28 PM CDT
Astronomical Twilight 6:24 AM CDT 8:03 PM CDT
Moon 10:32 AM CDT (10/28) 7:36 PM CDT (10/28)
Length of Visible Light 11h 19m
Length of Day
10h 17m
Waxing Crescent, 5% of the Moon is Illuminated
Oct 28
Waxing Crescent
Nov 2
First Quarter
Nov 10
Full
Nov 18
Last Quarter
Nov 25
New

Hourly Weather History & Observations

Time (CDT) Temp. Windchill Dew Point Humidity Pressure Visibility Wind Dir Wind Speed Gust Speed Precip Events Conditions
12:15 AM 41.0 °F 34.3 °F 33.8 °F 76% 30.00 in 10.0 mi WNW 11.5 mph - 0.00 in   Clear
12:35 AM 41.0 °F 35.2 °F 33.8 °F 76% 30.00 in 10.0 mi WNW 9.2 mph - 0.00 in   Clear
12:55 AM 39.2 °F 32.5 °F 35.6 °F 87% 30.00 in 10.0 mi WNW 10.4 mph - 0.00 in   Clear
1:15 AM 39.2 °F 32.5 °F 35.6 °F 87% 30.01 in 10.0 mi WNW 10.4 mph - 0.00 in   Clear
1:35 AM 39.2 °F 32.5 °F 35.6 °F 87% 30.01 in 10.0 mi WNW 10.4 mph - 0.00 in   Clear
1:55 AM 39.2 °F 31.6 °F 35.6 °F 87% 30.01 in 10.0 mi WNW 12.7 mph - 0.00 in   Clear
2:15 AM 37.4 °F 29.8 °F 35.6 °F 93% 30.02 in 10.0 mi West 11.5 mph - 0.00 in   Clear
2:35 AM 37.4 °F 30.3 °F 35.6 °F 93% 30.02 in 10.0 mi West 10.4 mph - 0.00 in   Clear
2:55 AM 37.4 °F 29.3 °F 35.6 °F 93% 30.02 in 10.0 mi West 12.7 mph 18.4 mph 0.00 in   Clear
3:15 AM 37.4 °F 29.3 °F 33.8 °F 87% 30.03 in 10.0 mi West 12.7 mph - 0.00 in   Clear
3:35 AM 35.6 °F 27.5 °F 33.8 °F 93% 30.03 in 10.0 mi WNW 11.5 mph - 0.00 in   Clear
3:55 AM 35.6 °F 27.5 °F 33.8 °F 93% 30.03 in 10.0 mi WNW 11.5 mph - 0.00 in   Clear
4:15 AM 35.6 °F 27.1 °F 32.0 °F 87% 30.03 in 10.0 mi WNW 12.7 mph - 0.00 in   Clear
4:55 AM 35.6 °F 27.1 °F 32.0 °F 87% 30.04 in 10.0 mi WNW 12.7 mph - 0.00 in   Clear
5:15 AM 35.6 °F 27.5 °F 32.0 °F 87% 30.05 in 10.0 mi West 11.5 mph - 0.00 in   Clear
5:35 AM 33.8 °F 24.8 °F 32.0 °F 93% 30.06 in 10.0 mi West 12.7 mph - 0.00 in   Clear
5:55 AM 33.8 °F 24.3 °F 32.0 °F 93% 30.06 in 10.0 mi West 13.8 mph - 0.00 in   Clear
6:15 AM 32.0 °F 23.6 °F 32.0 °F 100% 30.06 in 10.0 mi West 10.4 mph - 0.00 in   Clear
6:35 AM 32.0 °F 23.0 °F 32.0 °F 100% 30.07 in 10.0 mi West 11.5 mph - 0.00 in   Clear
6:55 AM 32.0 °F 23.0 °F 32.0 °F 100% 30.07 in 10.0 mi West 11.5 mph - 0.00 in   Clear
7:15 AM 32.0 °F 23.6 °F 32.0 °F 100% 30.07 in 10.0 mi West 10.4 mph - 0.00 in   Clear
7:35 AM 32.0 °F 24.2 °F 32.0 °F 100% 30.07 in 10.0 mi West 9.2 mph - 0.00 in   Clear
7:55 AM 32.0 °F 23.6 °F 32.0 °F 100% 30.07 in 10.0 mi West 10.4 mph - 0.00 in   Clear
8:15 AM 32.0 °F 23.6 °F 32.0 °F 100% 30.08 in 10.0 mi West 10.4 mph - 0.00 in   Clear
8:35 AM 32.0 °F 22.5 °F 32.0 °F 100% 30.08 in 10.0 mi West 12.7 mph - 0.00 in   Clear
8:55 AM 33.8 °F 25.8 °F 32.0 °F 93% 30.08 in 10.0 mi West 10.4 mph - 0.00 in   Clear
9:15 AM 35.6 °F 26.2 °F 32.0 °F 87% 30.09 in 10.0 mi West 15.0 mph - 0.00 in   Clear
9:35 AM 37.4 °F 28.2 °F 32.0 °F 81% 30.09 in 10.0 mi West 16.1 mph - 0.00 in   Clear
9:55 AM 37.4 °F 29.3 °F 32.0 °F 81% 30.09 in 10.0 mi West 12.7 mph - 0.00 in   Clear
10:15 AM 39.2 °F 30.5 °F 32.0 °F 75% 30.09 in 10.0 mi WNW 16.1 mph - 0.00 in   Clear
10:35 AM - - - N/A% - 10.0 mi North - - 0.00 in   Clear
10:55 AM - - - N/A% - - North - - 0.00 in   Unknown
11:15 AM - - - N/A% - - North - - 0.00 in   Unknown
11:35 AM - - - N/A% - - North - - 0.00 in   Unknown
11:55 AM - - - N/A% - - North - - 0.00 in   Unknown
12:15 PM 48.2 °F - 32.0 °F 54% 30.10 in - WNW 16.1 mph 20.7 mph 0.00 in   Unknown
12:35 PM 48.2 °F - 30.2 °F 50% 30.10 in 10.0 mi WNW 13.8 mph 18.4 mph 0.00 in   Clear
12:55 PM 50.0 °F - 30.2 °F 47% 30.09 in 10.0 mi WNW 17.3 mph - 0.00 in   Clear
1:15 PM 51.8 °F - 28.4 °F 41% 30.09 in 10.0 mi NW 13.8 mph 23.0 mph 0.00 in   Clear
1:35 PM 51.8 °F - 28.4 °F 41% 30.08 in 10.0 mi NW 17.3 mph 26.5 mph 0.00 in   Clear
1:55 PM 51.8 °F - 28.4 °F 41% 30.08 in 10.0 mi NW 16.1 mph 23.0 mph 0.00 in   Clear
2:15 PM 51.8 °F - 28.4 °F 41% 30.07 in 10.0 mi WNW 19.6 mph - 0.00 in   Clear
2:35 PM 51.8 °F - 28.4 °F 41% 30.07 in 10.0 mi NW 19.6 mph - 0.00 in   Clear
2:55 PM 51.8 °F - 26.6 °F 38% 30.07 in 10.0 mi NW 17.3 mph 26.5 mph 0.00 in   Partly Cloudy
3:15 PM 51.8 °F - 26.6 °F 38% 30.06 in 10.0 mi NW 18.4 mph 27.6 mph 0.00 in   Clear
3:35 PM 51.8 °F - 28.4 °F 41% 30.06 in 10.0 mi WNW 18.4 mph 21.9 mph 0.00 in   Clear
3:55 PM 51.8 °F - 28.4 °F 41% 30.06 in 10.0 mi WNW 18.4 mph - 0.00 in   Clear
4:15 PM 51.8 °F - 26.6 °F 38% 30.06 in 10.0 mi NW 15.0 mph 19.6 mph 0.00 in   Clear
4:35 PM 51.8 °F - 26.6 °F 38% 30.06 in 10.0 mi NW 16.1 mph 21.9 mph 0.00 in   Clear
4:55 PM 50.0 °F - 26.6 °F 40% 30.06 in 10.0 mi NW 16.1 mph 24.2 mph 0.00 in   Clear
5:15 PM 50.0 °F - 26.6 °F 40% 30.06 in 10.0 mi NW 13.8 mph - 0.00 in   Clear
5:35 PM 48.2 °F - 28.4 °F 46% 30.06 in 10.0 mi NW 9.2 mph - 0.00 in   Clear
5:55 PM 46.4 °F 40.7 °F 26.6 °F 46% 30.07 in 10.0 mi NW 12.7 mph - 0.00 in   Clear
6:15 PM 46.4 °F 41.5 °F 26.6 °F 46% 30.07 in 10.0 mi WNW 10.4 mph - 0.00 in   Clear
6:35 PM 44.6 °F 40.2 °F 26.6 °F 49% 30.07 in 10.0 mi WNW 8.1 mph - 0.00 in   Clear
6:55 PM 42.8 °F 38.6 °F 26.6 °F 53% 30.08 in 10.0 mi WNW 6.9 mph - 0.00 in   Clear
7:55 PM 39.2 °F 33.0 °F 26.6 °F 61% 30.08 in 10.0 mi WNW 9.2 mph - 0.00 in   Clear
8:15 PM 35.6 °F 29.9 °F 26.6 °F 70% 30.08 in 10.0 mi West 6.9 mph - 0.00 in   Clear
8:35 PM 33.8 °F 26.4 °F 26.6 °F 75% 30.07 in 10.0 mi West 9.2 mph - 0.00 in   Clear
8:55 PM 33.8 °F 26.4 °F 26.6 °F 75% 30.07 in 10.0 mi West 9.2 mph - 0.00 in   Clear
9:15 PM 32.0 °F 25.6 °F 26.6 °F 80% 30.07 in 10.0 mi West 6.9 mph - 0.00 in   Clear
9:35 PM 32.0 °F 26.4 °F 26.6 °F 80% 30.07 in 10.0 mi West 5.8 mph - 0.00 in   Clear
9:55 PM 32.0 °F 24.2 °F 28.4 °F 87% 30.06 in 10.0 mi West 9.2 mph - 0.00 in   Clear
10:15 PM 32.0 °F 24.8 °F 28.4 °F 87% 30.06 in 10.0 mi West 8.1 mph - 0.00 in   Clear
10:35 PM 32.0 °F 24.8 °F 28.4 °F 87% 30.06 in 10.0 mi West 8.1 mph - 0.00 in   Clear
10:55 PM 32.0 °F 24.8 °F 28.4 °F 87% 30.06 in 10.0 mi West 8.1 mph - 0.00 in   Clear
11:35 PM 32.0 °F 23.6 °F 28.4 °F 87% 30.06 in 10.0 mi WSW 10.4 mph - 0.00 in   Clear
11:55 PM 30.2 °F 22.6 °F 28.4 °F 93% 30.05 in 10.0 mi WSW 8.1 mph - 0.00 in   Clear